| time (UTC) | temp C | wind direction | speed KPH | gust KPH | rain 1hr cm | rain 24hr cm | rain mn cm | humidity % | barometer mb |
| 20260508023413 | 10 | 44 | 0.0 | 0.0 | 0.00 | 0.74 | 0.74 | 75 | 1008.7 |
| 20260508022913 | 10 | 44 | 0.0 | 0.0 | 0.00 | 0.76 | 0.74 | 74 | 1008.5 |
| 20260508022411 | 10 | 64 | 0.0 | 0.0 | 0.00 | 0.76 | 0.74 | 73 | 1008.7 |
| 20260508021908 | 10 | 64 | 0.0 | 0.0 | 0.00 | 0.76 | 0.74 | 72 | 1008.9 |
| 20260508021409 | 10 | 64 | 0.0 | 0.0 | 0.00 | 0.76 | 0.74 | 71 | 1008.8 |
| 20260508020907 | 10 | 64 | 0.0 | 0.0 | 0.00 | 0.81 | 0.74 | 70 | 1008.9 |
| 20260508020409 | 10 | 64 | 0.0 | 0.0 | 0.00 | 0.84 | 0.74 | 69 | 1008.9 |
| 20260508020139 | 10 | 64 | 0.0 | 0.0 | 0.00 | 0.84 | 0.74 | 69 | 1008.7 |
| 20260508015408 | 10 | 64 | 0.0 | 0.0 | 0.00 | 0.84 | 0.74 | 67 | 1008.7 |
| 20260508014909 | 10 | 64 | 0.0 | 0.0 | 0.00 | 0.84 | 0.74 | 65 | 1008.5 |
| 20260508014409 | 10 | 26 | 0.0 | 0.0 | 0.00 | 0.84 | 0.74 | 64 | 1008.5 |
| 20260508014139 | 11 | 31 | 0.0 | 0.0 | 0.00 | 0.84 | 0.74 | 64 | 1008.5 |
| 20260508013407 | 11 | 31 | 0.0 | 0.0 | 0.00 | 0.84 | 0.74 | 63 | 1008.4 |
| 20260508012908 | 11 | 356 | 0.0 | 0.0 | 0.00 | 0.84 | 0.74 | 63 | 1008.4 |
| 20260508012407 | 11 | 356 | 0.0 | 0.0 | 0.00 | 0.84 | 0.74 | 60 | 1008.3 |
| 20260508011909 | 11 | 356 | 0.0 | 0.0 | 0.00 | 0.84 | 0.74 | 60 | 1008.3 |
| 20260508011410 | 11 | 356 | 0.0 | 0.0 | 0.00 | 0.84 | 0.74 | 59 | 1008.4 |
| 20260508010912 | 12 | 356 | 0.0 | 0.0 | 0.00 | 0.84 | 0.74 | 59 | 1008.4 |
| 20260508010907 | 12 | 356 | 0.0 | 0.0 | 0.00 | 0.84 | 0.74 | 62 | 1008.3 |
| 20260508005907 | 12 | 356 | 0.0 | 0.0 | 0.00 | 0.84 | 0.74 | 58 | 1008.4 |
| 20260508005409 | 12 | 356 | 0.0 | 0.0 | 0.00 | 0.84 | 0.74 | 55 | 1008.3 |
| 20260508004907 | 12 | 356 | 0.0 | 0.0 | 0.00 | 0.84 | 0.74 | 54 | 1008.3 |
| 20260508004639 | 12 | 356 | 0.0 | 0.0 | 0.00 | 0.84 | 0.74 | 53 | 1008.2 |
| 20260508003908 | 13 | 356 | 0.0 | 0.0 | 0.00 | 0.84 | 0.74 | 53 | 1008.2 |
| 20260508003408 | 13 | 356 | 0.0 | 0.0 | 0.00 | 0.84 | 0.74 | 54 | 1008.1 |
| 20260508002903 | 13 | 356 | 0.0 | 0.0 | 0.00 | 0.84 | 0.74 | 53 | 1008.0 |
| 20260508002357 | 13 | 356 | 0.0 | 0.0 | 0.00 | 0.84 | 0.74 | 48 | 1008.1 |
| 20260508002352 | 13 | 356 | 0.0 | 0.0 | 0.00 | 0.84 | 0.74 | 48 | 1008.0 |
| 20260508001617 | 14 | 356 | 0.0 | 0.0 | 0.00 | 0.84 | 0.74 | 50 | 1007.9 |
| 20260508000838 | 14 | 356 | 0.0 | 0.0 | 0.00 | 0.84 | 0.74 | 45 | 1007.9 |
| 20260508000602 | 14 | 356 | 0.0 | 0.0 | 0.00 | 0.84 | 0.74 | 44 | 1007.8 |
| 20260507235826 | 15 | 356 | 0.0 | 0.0 | 0.00 | 0.84 | 0.74 | 44 | 1007.7 |
| 20260507235320 | 15 | 356 | 0.0 | 0.0 | 0.00 | 0.84 | 0.74 | 44 | 1007.7 |
| 20260507234814 | 15 | 356 | 0.0 | 0.0 | 0.00 | 0.84 | 0.74 | 44 | 1007.6 |
| 20260507234538 | 15 | 356 | 0.0 | 0.0 | 0.00 | 0.84 | 0.74 | 47 | 1007.7 |
| 20260507233759 | 15 | 356 | 0.0 | 0.0 | 0.00 | 0.84 | 0.74 | 46 | 1007.6 |
| 20260507232747 | 16 | 356 | 0.0 | 0.0 | 0.00 | 0.84 | 0.74 | 47 | 1007.6 |
| 20260507232241 | 16 | 355 | 0.0 | 0.0 | 0.00 | 0.84 | 0.74 | 46 | 1007.7 |
| 20260507231736 | 16 | 356 | 0.0 | 3.2 | 0.00 | 0.84 | 0.74 | 48 | 1007.5 |
| 20260507231501 | 16 | 356 | 0.0 | 3.2 | 0.00 | 0.84 | 0.74 | 40 | 1007.4 |
| 20260507230955 | 16 | 356 | 0.0 | 3.2 | 0.00 | 0.84 | 0.74 | 38 | 1007.4 |
| 20260507230218 | 16 | 356 | 0.0 | 3.2 | 0.00 | 0.84 | 0.74 | 36 | 1007.4 |
| 20260507225712 | 16 | 356 | 1.6 | 4.8 | 0.00 | 0.84 | 0.74 | 36 | 1007.4 |
| 20260507225205 | 16 | 354 | 1.6 | 4.8 | 0.00 | 0.84 | 0.74 | 36 | 1007.4 |
| 20260507224659 | 16 | 332 | 0.0 | 1.6 | 0.00 | 0.84 | 0.74 | 37 | 1007.4 |
| 20260507224155 | 17 | 26 | 0.0 | 3.2 | 0.00 | 0.84 | 0.74 | 36 | 1007.3 |
| 20260507223918 | 17 | 26 | 0.0 | 3.2 | 0.00 | 0.84 | 0.74 | 37 | 1007.3 |
| 20260507223143 | 17 | 26 | 0.0 | 3.2 | 0.00 | 0.84 | 0.74 | 34 | 1007.4 |
| 20260507222636 | 17 | 26 | 0.0 | 3.2 | 0.00 | 0.84 | 0.74 | 36 | 1007.5 |
| 20260507222403 | 17 | 7 | 0.0 | 3.2 | 0.00 | 0.84 | 0.74 | 36 | 1007.6 |
| 20260507221623 | 17 | 353 | 0.0 | 3.2 | 0.00 | 0.84 | 0.74 | 35 | 1007.5 |
| 20260507221119 | 17 | 353 | 0.0 | 3.2 | 0.00 | 0.84 | 0.74 | 35 | 1007.6 |
| 20260507220612 | 17 | 335 | 1.6 | 3.2 | 0.00 | 0.84 | 0.74 | 34 | 1007.5 |
| 20260507220105 | 17 | 358 | 0.0 | 3.2 | 0.00 | 0.84 | 0.74 | 35 | 1007.6 |
| 20260507215600 | 17 | 26 | 0.0 | 1.6 | 0.00 | 0.84 | 0.74 | 36 | 1007.6 |
| 20260507215053 | 17 | 26 | 0.0 | 3.2 | 0.00 | 0.84 | 0.74 | 37 | 1007.6 |
| 20260507214548 | 17 | 2 | 0.0 | 3.2 | 0.00 | 0.84 | 0.74 | 35 | 1007.5 |
| 20260507214043 | 17 | 2 | 0.0 | 1.6 | 0.00 | 0.84 | 0.74 | 35 | 1007.7 |
| 20260507213536 | 17 | 305 | 0.0 | 1.6 | 0.00 | 0.84 | 0.74 | 38 | 1007.6 |
| 20260507213029 | 17 | 305 | 0.0 | 1.6 | 0.00 | 0.84 | 0.74 | 40 | 1007.7 |
| 20260507212524 | 17 | 305 | 0.0 | 3.2 | 0.00 | 0.84 | 0.74 | 34 | 1007.5 |
| 20260507212017 | 18 | 305 | 0.0 | 3.2 | 0.00 | 0.84 | 0.74 | 33 | 1007.5 |
| 20260507211512 | 18 | 206 | 1.6 | 12.9 | 0.00 | 0.84 | 0.74 | 33 | 1007.5 |
| 20260507211005 | 18 | 206 | 1.6 | 12.9 | 0.00 | 0.84 | 0.74 | 38 | 1007.5 |
| 20260507210501 | 18 | 227 | 3.2 | 11.3 | 0.00 | 0.84 | 0.74 | 38 | 1007.4 |
| 20260507210456 | 18 | 253 | 3.2 | 12.9 | 0.00 | 0.84 | 0.74 | 36 | 1007.4 |
| 20260507205448 | 18 | 273 | 3.2 | 12.9 | 0.00 | 0.84 | 0.74 | 34 | 1007.3 |
| 20260507205212 | 18 | 200 | 3.2 | 12.9 | 0.00 | 0.84 | 0.74 | 36 | 1007.3 |
| 20260507204436 | 18 | 217 | 1.6 | 8.0 | 0.00 | 0.84 | 0.74 | 39 | 1007.2 |
| 20260507203929 | 18 | 345 | 3.2 | 14.5 | 0.00 | 0.84 | 0.74 | 32 | 1007.3 |
| 20260507203424 | 18 | 273 | 4.8 | 14.5 | 0.00 | 0.84 | 0.74 | 37 | 1007.2 |
| 20260507203419 | 18 | 229 | 4.8 | 16.1 | 0.00 | 0.84 | 0.74 | 36 | 1007.3 |
| 20260507202645 | 18 | 236 | 4.8 | 16.1 | 0.00 | 0.84 | 0.74 | 35 | 1007.4 |
| 20260507201905 | 18 | 265 | 3.2 | 20.9 | 0.00 | 0.84 | 0.74 | 35 | 1007.5 |
| 20260507201633 | 18 | 279 | 1.6 | 20.9 | 0.00 | 0.84 | 0.74 | 39 | 1007.5 |
| 20260507201126 | 18 | 257 | 3.2 | 9.7 | 0.00 | 0.84 | 0.74 | 33 | 1007.6 |
| 20260507200348 | 18 | 240 | 3.2 | 9.7 | 0.00 | 0.84 | 0.74 | 35 | 1007.5 |
| 20260507195842 | 18 | 46 | 3.2 | 8.0 | 0.00 | 0.84 | 0.74 | 32 | 1007.6 |
| 20260507195336 | 18 | 299 | 1.6 | 8.0 | 0.00 | 0.84 | 0.74 | 32 | 1007.5 |
| 20260507194831 | 18 | 258 | 1.6 | 4.8 | 0.00 | 0.84 | 0.74 | 40 | 1007.6 |
| 20260507194323 | 18 | 14 | 3.2 | 11.3 | 0.00 | 0.84 | 0.74 | 36 | 1007.6 |
| 20260507193817 | 18 | 265 | 4.8 | 14.5 | 0.00 | 0.84 | 0.74 | 38 | 1007.7 |
| 20260507193312 | 18 | 211 | 6.4 | 14.5 | 0.00 | 0.84 | 0.74 | 42 | 1007.7 |
| 20260507192807 | 17 | 182 | 8.0 | 17.7 | 0.00 | 0.84 | 0.74 | 40 | 1007.8 |
| 20260507192259 | 18 | 233 | 6.4 | 17.7 | 0.00 | 0.84 | 0.74 | 36 | 1007.7 |
| 20260507191800 | 18 | 254 | 3.2 | 16.1 | 0.00 | 0.84 | 0.74 | 36 | 1007.8 |
| 20260507191303 | 18 | 2 | 1.6 | 4.8 | 0.00 | 0.84 | 0.74 | 37 | 1007.9 |
| 20260507191258 | 18 | 323 | 1.6 | 4.8 | 0.00 | 0.84 | 0.74 | 35 | 1007.9 |
| 20260507190258 | 17 | 306 | 1.6 | 6.4 | 0.00 | 0.84 | 0.74 | 35 | 1007.8 |
| 20260507190028 | 17 | 350 | 1.6 | 6.4 | 0.00 | 0.84 | 0.74 | 38 | 1007.9 |
| 20260507185912 | 17 | 8 | 1.6 | 6.4 | 0.00 | 0.84 | 0.74 | 36 | 1008.0 |
| 20260507184751 | 17 | 216 | 1.6 | 6.4 | 0.00 | 0.84 | 0.74 | 49 | 1008.1 |
| 20260507184524 | 17 | 341 | 1.6 | 11.3 | 0.00 | 0.84 | 0.74 | 38 | 1008.1 |
| 20260507183752 | 18 | 263 | 1.6 | 11.3 | 0.00 | 0.84 | 0.74 | 43 | 1008.3 |
| 20260507183251 | 17 | 344 | 1.6 | 6.4 | 0.00 | 0.84 | 0.74 | 45 | 1008.3 |
| 20260507182753 | 18 | 18 | 1.6 | 8.0 | 0.00 | 0.84 | 0.74 | 40 | 1008.4 |
| 20260507182251 | 17 | 235 | 3.2 | 11.3 | 0.00 | 0.84 | 0.74 | 40 | 1008.4 |
| 20260507181752 | 17 | 292 | 4.8 | 17.7 | 0.00 | 0.84 | 0.74 | 40 | 1008.5 |
| 20260507181251 | 17 | 263 | 3.2 | 17.7 | 0.00 | 0.84 | 0.74 | 41 | 1008.5 |
| 20260507180751 | 17 | 337 | 1.6 | 8.0 | 0.00 | 0.84 | 0.74 | 40 | 1008.7 |
| 20260507180247 | 17 | 355 | 1.6 | 8.0 | 0.00 | 0.84 | 0.74 | 40 | 1008.6 |
| 20260507175747 | 17 | 12 | 3.2 | 14.5 | 0.00 | 0.84 | 0.74 | 45 | 1008.7 |
| 20260507175248 | 17 | 246 | 4.8 | 17.7 | 0.00 | 0.84 | 0.74 | 47 | 1008.7 |
| 20260507174751 | 17 | 13 | 3.2 | 11.3 | 0.00 | 0.84 | 0.74 | 42 | 1009.0 |
| 20260507174746 | 17 | 145 | 4.8 | 17.7 | 0.00 | 0.84 | 0.74 | 43 | 1008.9 |
| 20260507173748 | 17 | 89 | 1.6 | 11.3 | 0.00 | 0.84 | 0.74 | 45 | 1009.3 |
| 20260507173247 | 17 | 268 | 3.2 | 11.3 | 0.00 | 0.84 | 0.74 | 42 | 1009.3 |
| 20260507172747 | 17 | 196 | 4.8 | 17.7 | 0.00 | 0.84 | 0.74 | 43 | 1009.3 |
| 20260507172247 | 17 | 240 | 4.8 | 17.7 | 0.00 | 0.84 | 0.74 | 47 | 1009.6 |
| 20260507171747 | 17 | 318 | 3.2 | 19.3 | 0.00 | 0.84 | 0.74 | 44 | 1009.6 |
| 20260507171519 | 16 | 221 | 3.2 | 19.3 | 0.00 | 0.84 | 0.74 | 48 | 1009.6 |
| 20260507170748 | 16 | 252 | 4.8 | 16.1 | 0.00 | 0.84 | 0.74 | 42 | 1009.7 |
| 20260507170247 | 16 | 268 | 3.2 | 17.7 | 0.00 | 0.86 | 0.74 | 47 | 1009.8 |
| 20260507170018 | 16 | 240 | 3.2 | 17.7 | 0.00 | 0.86 | 0.74 | 46 | 1009.9 |
| 20260507165246 | 16 | 347 | 1.6 | 8.0 | 0.00 | 0.86 | 0.74 | 43 | 1009.9 |
| 20260507164747 | 16 | 339 | 3.2 | 8.0 | 0.00 | 0.86 | 0.74 | 43 | 1010.0 |
| 20260507164245 | 16 | 12 | 1.6 | 11.3 | 0.00 | 0.86 | 0.74 | 43 | 1010.0 |
| 20260507163744 | 16 | 206 | 1.6 | 11.3 | 0.00 | 0.86 | 0.74 | 48 | 1010.1 |
| 20260507163238 | 16 | 282 | 3.2 | 16.1 | 0.00 | 0.89 | 0.74 | 44 | 1010.1 |
| 20260507162732 | 16 | 295 | 4.8 | 16.1 | 0.00 | 0.89 | 0.74 | 45 | 1010.1 |
| 20260507162228 | 16 | 243 | 4.8 | 14.5 | 0.00 | 0.91 | 0.74 | 48 | 1010.3 |
| 20260507161951 | 15 | 227 | 6.4 | 16.1 | 0.00 | 0.91 | 0.74 | 53 | 1010.3 |
| 20260507161214 | 15 | 252 | 4.8 | 16.1 | 0.00 | 0.91 | 0.74 | 52 | 1010.4 |
| 20260507160709 | 15 | 354 | 1.6 | 9.7 | 0.00 | 0.94 | 0.74 | 56 | 1010.5 |
| 20260507160202 | 15 | 229 | 3.2 | 9.7 | 0.00 | 0.94 | 0.74 | 57 | 1010.6 |
| 20260507155657 | 15 | 200 | 4.8 | 20.9 | 0.00 | 0.97 | 0.74 | 50 | 1010.6 |
| 20260507155151 | 15 | 209 | 4.8 | 20.9 | 0.00 | 0.97 | 0.74 | 59 | 1010.5 |
| 20260507154916 | 15 | 342 | 4.8 | 17.7 | 0.00 | 0.99 | 0.74 | 57 | 1010.7 |
| 20260507154138 | 15 | 148 | 1.6 | 17.7 | 0.00 | 0.99 | 0.74 | 58 | 1010.8 |
| 20260507153634 | 15 | 94 | 1.6 | 9.7 | 0.00 | 1.02 | 0.74 | 58 | 1010.9 |
| 20260507153357 | 14 | 301 | 3.2 | 16.1 | 0.00 | 1.04 | 0.74 | 68 | 1010.8 |
| 20260507152621 | 13 | 269 | 3.2 | 16.1 | 0.00 | 1.04 | 0.74 | 67 | 1011.0 |
| 20260507152345 | 13 | 266 | 3.2 | 14.5 | 0.00 | 1.04 | 0.74 | 64 | 1011.1 |
| 20260507151608 | 13 | 302 | 1.6 | 8.0 | 0.00 | 1.04 | 0.74 | 68 | 1011.1 |
| 20260507151100 | 13 | 235 | 1.6 | 3.2 | 0.00 | 1.04 | 0.74 | 69 | 1011.1 |
| 20260507150826 | 12 | 331 | 1.6 | 6.4 | 0.00 | 1.04 | 0.74 | 68 | 1011.1 |
| 20260507150049 | 12 | 269 | 1.6 | 8.0 | 0.00 | 1.04 | 0.74 | 68 | 1011.2 |
| 20260507145543 | 12 | 138 | 1.6 | 8.0 | 0.00 | 1.04 | 0.74 | 73 | 1011.2 |
| 20260507145036 | 12 | 243 | 1.6 | 6.4 | 0.00 | 1.04 | 0.74 | 74 | 1011.3 |
| 20260507144803 | 11 | 275 | 1.6 | 8.0 | 0.00 | 1.04 | 0.74 | 74 | 1011.5 |
| 20260507144257 | 11 | 318 | 0.0 | 8.0 | 0.00 | 1.04 | 0.74 | 78 | 1011.5 |
| 20260507143750 | 11 | 325 | 1.6 | 11.3 | 0.00 | 1.04 | 0.74 | 75 | 1011.5 |
| 20260507143243 | 11 | 229 | 1.6 | 11.3 | 0.00 | 1.04 | 0.74 | 75 | 1011.6 |
| 20260507142508 | 11 | 248 | 3.2 | 11.3 | 0.00 | 1.04 | 0.74 | 77 | 1011.6 |
| 20260507142001 | 11 | 242 | 3.2 | 11.3 | 0.00 | 1.04 | 0.74 | 79 | 1011.6 |
| 20260507141455 | 11 | 236 | 0.0 | 4.8 | 0.00 | 1.04 | 0.74 | 82 | 1011.5 |
| 20260507140948 | 10 | 269 | 0.0 | 6.4 | 0.00 | 1.04 | 0.74 | 80 | 1011.6 |
| 20260507140444 | 10 | 298 | 1.6 | 9.7 | 0.00 | 1.04 | 0.74 | 82 | 1011.7 |
| 20260507140208 | 10 | 239 | 1.6 | 9.7 | 0.00 | 1.04 | 0.74 | 84 | 1011.5 |
| 20260507135431 | 10 | 236 | 3.2 | 11.3 | 0.00 | 1.04 | 0.74 | 84 | 1011.6 |
| 20260507134927 | 10 | 82 | 1.6 | 11.3 | 0.00 | 1.04 | 0.74 | 86 | 1011.6 |
| 20260507134922 | 10 | 317 | 1.6 | 16.1 | 0.00 | 1.04 | 0.74 | 87 | 1011.6 |
| 20260507133912 | 10 | 227 | 1.6 | 16.1 | 0.00 | 1.04 | 0.74 | 87 | 1011.6 |
| 20260507133407 | 10 | 202 | 0.0 | 1.6 | 0.00 | 1.04 | 0.74 | 90 | 1011.6 |
| 20260507132901 | 9 | 335 | 0.0 | 4.8 | 0.00 | 1.04 | 0.74 | 90 | 1011.5 |
| 20260507132355 | 9 | 319 | 1.6 | 8.0 | 0.00 | 1.04 | 0.74 | 91 | 1011.5 |
| 20260507132121 | 9 | 213 | 1.6 | 9.7 | 0.00 | 1.04 | 0.74 | 92 | 1011.5 |
| 20260507131342 | 9 | 229 | 1.6 | 9.7 | 0.00 | 1.04 | 0.74 | 92 | 1011.5 |
| 20260507131108 | 9 | 209 | 0.0 | 4.8 | 0.00 | 1.04 | 0.74 | 93 | 1011.4 |
| 20260507130330 | 8 | 236 | 1.6 | 11.3 | 0.00 | 1.04 | 0.74 | 93 | 1011.5 |
| 20260507125826 | 8 | 269 | 1.6 | 11.3 | 0.00 | 1.04 | 0.74 | 93 | 1011.6 |
| 20260507125320 | 8 | 249 | 1.6 | 9.7 | 0.00 | 1.04 | 0.74 | 94 | 1011.7 |
| 20260507124812 | 8 | 252 | 0.0 | 8.0 | 0.00 | 1.04 | 0.74 | 94 | 1011.6 |
| 20260507124307 | 8 | 232 | 0.0 | 3.2 | 0.00 | 1.04 | 0.74 | 94 | 1011.6 |
| 20260507123801 | 8 | 224 | 0.0 | 6.4 | 0.00 | 1.04 | 0.74 | 94 | 1011.7 |
| 20260507123255 | 8 | 306 | 0.0 | 6.4 | 0.00 | 1.04 | 0.74 | 94 | 1011.6 |
| 20260507122749 | 8 | 237 | 0.0 | 6.4 | 0.00 | 1.04 | 0.74 | 94 | 1011.6 |
| 20260507122244 | 8 | 240 | 0.0 | 1.6 | 0.00 | 1.04 | 0.74 | 94 | 1011.5 |
| 20260507121737 | 8 | 240 | 0.0 | 3.2 | 0.00 | 1.04 | 0.74 | 94 | 1011.6 |
| 20260507121231 | 8 | 240 | 0.0 | 3.2 | 0.00 | 1.04 | 0.74 | 94 | 1011.6 |
| 20260507120955 | 8 | 233 | 0.0 | 3.2 | 0.00 | 1.04 | 0.74 | 94 | 1011.6 |
| 20260507120218 | 8 | 233 | 0.0 | 1.6 | 0.00 | 1.04 | 0.74 | 94 | 1011.7 |
| 20260507115714 | 8 | 233 | 0.0 | 6.4 | 0.00 | 1.04 | 0.74 | 94 | 1011.7 |
| 20260507115214 | 8 | 219 | 1.6 | 6.4 | 0.00 | 1.04 | 0.74 | 94 | 1011.6 |
| 20260507114713 | 8 | 195 | 1.6 | 8.0 | 0.00 | 1.04 | 0.74 | 94 | 1011.5 |
| 20260507114212 | 8 | 225 | 1.6 | 8.0 | 0.00 | 1.04 | 0.74 | 94 | 1011.4 |
| 20260507113940 | 8 | 233 | 1.6 | 8.0 | 0.00 | 1.04 | 0.74 | 95 | 1011.5 |
| 20260507113439 | 8 | 227 | 1.6 | 8.0 | 0.00 | 1.04 | 0.74 | 95 | 1011.5 |
| 20260507112710 | 8 | 228 | 1.6 | 6.4 | 0.00 | 1.04 | 0.74 | 94 | 1011.3 |
| 20260507112209 | 8 | 235 | 1.6 | 4.8 | 0.00 | 1.04 | 0.74 | 94 | 1011.3 |
| 20260507111709 | 8 | 222 | 1.6 | 4.8 | 0.00 | 1.04 | 0.74 | 94 | 1011.2 |
| 20260507111208 | 8 | 215 | 1.6 | 4.8 | 0.00 | 1.04 | 0.74 | 95 | 1011.2 |
| 20260507110710 | 8 | 220 | 0.0 | 4.8 | 0.00 | 1.04 | 0.74 | 94 | 1011.0 |
| 20260507110209 | 8 | 244 | 1.6 | 4.8 | 0.00 | 1.04 | 0.74 | 94 | 1010.8 |
| 20260507105706 | 8 | 231 | 0.0 | 4.8 | 0.00 | 1.04 | 0.74 | 94 | 1010.9 |
| 20260507105207 | 8 | 239 | 0.0 | 4.8 | 0.00 | 1.04 | 0.74 | 94 | 1010.8 |
| 20260507104707 | 8 | 241 | 0.0 | 3.2 | 0.00 | 1.04 | 0.74 | 94 | 1010.9 |
| 20260507104206 | 8 | 226 | 0.0 | 3.2 | 0.00 | 1.04 | 0.74 | 94 | 1010.9 |
| 20260507103707 | 8 | 225 | 0.0 | 1.6 | 0.00 | 1.04 | 0.74 | 94 | 1010.8 |
| 20260507103202 | 8 | 225 | 0.0 | 1.6 | 0.00 | 1.04 | 0.74 | 94 | 1010.7 |
| 20260507102933 | 8 | 225 | 0.0 | 0.0 | 0.00 | 1.04 | 0.74 | 93 | 1010.7 |
| 20260507102432 | 8 | 225 | 0.0 | 0.0 | 0.00 | 1.04 | 0.74 | 94 | 1010.5 |
| 20260507101701 | 8 | 225 | 0.0 | 0.0 | 0.00 | 1.04 | 0.74 | 93 | 1010.4 |
| 20260507101203 | 8 | 225 | 0.0 | 0.0 | 0.00 | 1.04 | 0.74 | 93 | 1010.3 |
| 20260507100704 | 8 | 225 | 0.0 | 0.0 | 0.00 | 1.04 | 0.74 | 93 | 1010.1 |
| 20260507100203 | 8 | 225 | 0.0 | 0.0 | 0.00 | 1.04 | 0.74 | 93 | 1010.1 |
| 20260507095701 | 8 | 225 | 0.0 | 0.0 | 0.00 | 1.04 | 0.74 | 93 | 1010.1 |
| 20260507095433 | 8 | 225 | 0.0 | 0.0 | 0.00 | 1.04 | 0.74 | 93 | 1010.1 |
| 20260507094701 | 8 | 225 | 0.0 | 0.0 | 0.00 | 1.04 | 0.74 | 93 | 1010.1 |
| 20260507094433 | 8 | 225 | 0.0 | 0.0 | 0.00 | 1.04 | 0.74 | 93 | 1010.1 |
| 20260507093701 | 8 | 225 | 0.0 | 0.0 | 0.00 | 1.04 | 0.74 | 93 | 1010.0 |
| 20260507093203 | 8 | 225 | 0.0 | 1.6 | 0.03 | 1.04 | 0.74 | 93 | 1010.1 |
| 20260507092701 | 8 | 225 | 0.0 | 1.6 | 0.03 | 1.04 | 0.74 | 93 | 1010.1 |
| 20260507092202 | 8 | 225 | 0.0 | 0.0 | 0.05 | 1.04 | 0.74 | 93 | 1009.9 |
| 20260507091703 | 8 | 225 | 0.0 | 4.8 | 0.05 | 1.04 | 0.74 | 93 | 1009.9 |
| 20260507091203 | 8 | 225 | 0.0 | 4.8 | 0.05 | 1.04 | 0.74 | 93 | 1009.9 |
| 20260507090701 | 8 | 234 | 0.0 | 0.0 | 0.05 | 1.04 | 0.74 | 93 | 1009.8 |
| 20260507090155 | 8 | 234 | 0.0 | 0.0 | 0.08 | 1.04 | 0.74 | 93 | 1009.7 |
| 20260507085647 | 8 | 234 | 0.0 | 0.0 | 0.08 | 1.04 | 0.74 | 93 | 1009.8 |
| 20260507085412 | 8 | 138 | 0.0 | 0.0 | 0.10 | 1.04 | 0.74 | 93 | 1009.8 |
| 20260507084636 | 8 | 138 | 0.0 | 0.0 | 0.10 | 1.04 | 0.74 | 92 | 1009.9 |
| 20260507084129 | 8 | 138 | 0.0 | 0.0 | 0.13 | 1.04 | 0.74 | 92 | 1009.9 |
| 20260507083625 | 8 | 82 | 0.0 | 0.0 | 0.15 | 1.04 | 0.74 | 92 | 1009.5 |
| 20260507083117 | 8 | 82 | 0.0 | 0.0 | 0.15 | 1.02 | 0.71 | 92 | 1009.7 |
| 20260507082612 | 8 | 82 | 0.0 | 0.0 | 0.18 | 1.02 | 0.71 | 92 | 1009.7 |
| 20260507082106 | 8 | 96 | 0.0 | 0.0 | 0.15 | 0.99 | 0.69 | 92 | 1009.7 |
| 20260507081600 | 8 | 96 | 0.0 | 0.0 | 0.15 | 0.99 | 0.69 | 92 | 1009.6 |
| 20260507081054 | 8 | 96 | 0.0 | 0.0 | 0.15 | 0.99 | 0.69 | 92 | 1009.8 |
| 20260507080547 | 8 | 96 | 0.0 | 0.0 | 0.13 | 0.97 | 0.66 | 92 | 1010.0 |
| 20260507080043 | 8 | 96 | 0.0 | 0.0 | 0.13 | 0.97 | 0.66 | 92 | 1009.9 |
| 20260507075536 | 8 | 94 | 0.0 | 4.8 | 0.10 | 0.94 | 0.64 | 92 | 1010.3 |
| 20260507075030 | 8 | 254 | 0.0 | 6.4 | 0.13 | 0.94 | 0.64 | 92 | 1010.1 |
| 20260507074754 | 8 | 223 | 0.0 | 6.4 | 0.15 | 0.91 | 0.61 | 92 | 1010.3 |
| 20260507074248 | 8 | 250 | 0.0 | 1.6 | 0.18 | 0.91 | 0.61 | 92 | 1010.3 |
| 20260507073511 | 8 | 250 | 0.0 | 4.8 | 0.18 | 0.89 | 0.58 | 92 | 1010.1 |
| 20260507073005 | 8 | 250 | 1.6 | 9.7 | 0.20 | 0.86 | 0.56 | 92 | 1010.6 |
| 20260507072500 | 8 | 286 | 1.6 | 9.7 | 0.20 | 0.84 | 0.53 | 92 | 1010.4 |
| 20260507072225 | 8 | 321 | 0.0 | 1.6 | 0.23 | 0.84 | 0.53 | 92 | 1010.0 |
| 20260507071447 | 9 | 321 | 0.0 | 4.8 | 0.23 | 0.84 | 0.53 | 92 | 1009.8 |
| 20260507070942 | 9 | 319 | 0.0 | 8.0 | 0.25 | 0.84 | 0.53 | 92 | 1010.3 |
| 20260507070436 | 9 | 202 | 0.0 | 8.0 | 0.28 | 0.84 | 0.53 | 91 | 1010.3 |
| 20260507070201 | 9 | 333 | 0.0 | 4.8 | 0.30 | 0.84 | 0.53 | 92 | 1009.9 |
| 20260507065424 | 9 | 273 | 1.6 | 6.4 | 0.30 | 0.84 | 0.53 | 92 | 1010.1 |
| 20260507064917 | 9 | 280 | 1.6 | 6.4 | 0.28 | 0.81 | 0.51 | 92 | 1009.9 |
| 20260507064412 | 9 | 317 | 1.6 | 9.7 | 0.23 | 0.76 | 0.46 | 92 | 1010.0 |
| 20260507063907 | 9 | 287 | 0.0 | 9.7 | 0.25 | 0.74 | 0.43 | 91 | 1010.0 |
| 20260507063400 | 9 | 229 | 0.0 | 4.8 | 0.30 | 0.71 | 0.41 | 91 | 1009.9 |
| 20260507063126 | 9 | 240 | 0.0 | 8.0 | 0.25 | 0.64 | 0.36 | 91 | 1009.9 |
| 20260507062348 | 9 | 265 | 1.6 | 8.0 | 0.30 | 0.64 | 0.33 | 90 | 1010.4 |
| 20260507061843 | 10 | 250 | 0.0 | 4.8 | 0.30 | 0.61 | 0.30 | 90 | 1009.9 |
| 20260507061336 | 10 | 256 | 0.0 | 4.8 | 0.30 | 0.61 | 0.30 | 89 | 1009.8 |
| 20260507060830 | 10 | 324 | 1.6 | 6.4 | 0.28 | 0.58 | 0.28 | 89 | 1009.5 |
| 20260507060325 | 10 | 204 | 0.0 | 6.4 | 0.25 | 0.56 | 0.25 | 88 | 1010.3 |
| 20260507060320 | 10 | 264 | 0.0 | 1.6 | 0.23 | 0.53 | 0.23 | 88 | 1009.9 |
| 20260507055311 | 10 | 264 | 1.6 | 6.4 | 0.23 | 0.53 | 0.23 | 88 | 1009.6 |
| 20260507054806 | 10 | 264 | 1.6 | 8.0 | 0.23 | 0.53 | 0.23 | 88 | 1009.6 |
| 20260507054301 | 10 | 221 | 1.6 | 12.9 | 0.20 | 0.51 | 0.23 | 87 | 1009.7 |
| 20260507053755 | 10 | 236 | 3.2 | 12.9 | 0.10 | 0.41 | 0.13 | 87 | 1009.6 |
| 20260507053249 | 11 | 261 | 3.2 | 14.5 | 0.10 | 0.41 | 0.10 | 86 | 1009.7 |
| 20260507052743 | 11 | 297 | 3.2 | 14.5 | 0.03 | 0.33 | 0.03 | 86 | 1009.4 |
| 20260507052236 | 11 | 243 | 1.6 | 6.4 | 0.03 | 0.33 | 0.03 | 85 | 1009.3 |
| 20260507051729 | 11 | 282 | 1.6 | 9.7 | 0.00 | 0.30 | 0.00 | 84 | 1009.0 |
| 20260507051225 | 11 | 67 | 1.6 | 9.7 | 0.00 | 0.30 | 0.00 | 84 | 1008.6 |
| 20260507050719 | 12 | 238 | 0.0 | 4.8 | 0.00 | 0.30 | 0.00 | 84 | 1008.9 |
| 20260507050211 | 12 | 340 | 0.0 | 4.8 | 0.00 | 0.30 | 0.00 | 85 | 1009.1 |
| 20260507045705 | 12 | 153 | 0.0 | 1.6 | 0.00 | 0.30 | 0.00 | 85 | 1009.0 |
| 20260507045200 | 12 | 153 | 0.0 | 3.2 | 0.00 | 0.30 | 0.00 | 85 | 1008.7 |
| 20260507044653 | 12 | 153 | 0.0 | 3.2 | 0.00 | 0.30 | 0.00 | 84 | 1008.7 |
| 20260507044148 | 12 | 256 | 0.0 | 1.6 | 0.00 | 0.30 | 0.00 | 84 | 1008.7 |
| 20260507043643 | 12 | 256 | 0.0 | 1.6 | 0.00 | 0.30 | 0.00 | 83 | 1008.9 |
| 20260507043136 | 12 | 256 | 0.0 | 4.8 | 0.00 | 0.30 | 0.00 | 84 | 1008.7 |
| 20260507043131 | 12 | 204 | 0.0 | 4.8 | 0.00 | 0.30 | 0.00 | 84 | 1009.2 |
| 20260507042124 | 12 | 247 | 0.0 | 3.2 | 0.00 | 0.30 | 0.00 | 83 | 1009.1 |
| 20260507042119 | 12 | 247 | 0.0 | 4.8 | 0.00 | 0.30 | 0.00 | 83 | 1009.2 |
| 20260507041110 | 12 | 247 | 0.0 | 4.8 | 0.00 | 0.30 | 0.00 | 83 | 1009.2 |
| 20260507040605 | 13 | 348 | 0.0 | 3.2 | 0.00 | 0.30 | 0.00 | 83 | 1009.1 |
| 20260507040058 | 13 | 309 | 1.6 | 6.4 | 0.00 | 0.30 | 0.00 | 83 | 1009.1 |
| 20260507035553 | 13 | 277 | 1.6 | 9.7 | 0.00 | 0.30 | 0.30 | 82 | 1009.2 |
| 20260507035046 | 13 | 213 | 0.0 | 3.2 | 0.00 | 0.30 | 0.30 | 83 | 1009.0 |
| 20260507034540 | 13 | 306 | 0.0 | 3.2 | 0.00 | 0.30 | 0.30 | 83 | 1008.9 |
| 20260507034035 | 13 | 282 | 0.0 | 0.0 | 0.00 | 0.30 | 0.30 | 83 | 1009.0 |
| 20260507033528 | 14 | 317 | 0.0 | 4.8 | 0.00 | 0.30 | 0.30 | 83 | 1009.0 |
| 20260507033023 | 14 | 317 | 0.0 | 4.8 | 0.03 | 0.30 | 0.30 | 82 | 1009.1 |
| 20260507032517 | 15 | 313 | 0.0 | 3.2 | 0.03 | 0.30 | 0.30 | 82 | 1008.9 |
| 20260507032010 | 15 | 0 | 1.6 | 4.8 | 0.03 | 0.30 | 0.30 | 84 | 1008.9 |
| 20260507031505 | 15 | 342 | 1.6 | 4.8 | 0.03 | 0.30 | 0.30 | 84 | 1008.9 |
| 20260507031232 | 15 | 319 | 1.6 | 3.2 | 0.08 | 0.30 | 0.30 | 85 | 1008.7 |
| 20260507030453 | 16 | 300 | 0.0 | 3.2 | 0.10 | 0.30 | 0.30 | 86 | 1008.7 |
| 20260507025947 | 16 | 271 | 0.0 | 4.8 | 0.10 | 0.30 | 0.30 | 87 | 1008.5 |
| 20260507025440 | 16 | 296 | 1.6 | 4.8 | 0.10 | 0.30 | 0.30 | 88 | 1008.5 |
| 20260507024936 | 16 | 297 | 1.6 | 8.0 | 0.10 | 0.30 | 0.30 | 90 | 1008.4 |
| 20260507024430 | 16 | 242 | 1.6 | 8.0 | 0.10 | 0.30 | 0.30 | 89 | 1008.3 |
| 20260507023931 | 16 | 192 | 1.6 | 6.4 | 0.10 | 0.30 | 0.30 | 89 | 1008.2 |